Regional Weather Roundup
Issued by NWS

Home | Current Version | Previous Version | Text Only | Print | Product List | Glossary On
Versions: 1 2 3 4 5 6 7 8 9 10 11 12 13 14 15 16 17 18 19 20 21 22 23 24 25 26 27 28 29 30 31 32 33 34 35 36 37 38 39 40 41 42 43 44 45 46 47 48 49 50
000
ASUS43 KMPX 020001
RWRMN
WEATHER ROUNDUP FOR MINNESOTA
NATIONAL WEATHER SERVICE TWIN CITIES/CHANHASSEN MN
700 PM CDT SUN MAY 01 2016


NOTE: "FAIR" INDICATES FEW OR NO CLOUDS BELOW 12,000 FEET WITH NO
SIGNIFICANT WEATHER AND/OR OBSTRUCTIONS TO VISIBILITY. N/A MEANS
CURRENT SKY AND/OR WEATHER CONDITIONS ARE NOT AVAILABLE.

MNZ060>063-068>070-020100-
   Twin Cities Metro

CITY           SKY/WX    TMP DP  RH WIND       PRES   REMARKS
TWIN CITIES    PTSUNNY   62  33  33 N9G20     30.09F
6HR MIN TEMP:  57; 6HR MAX TEMP:  63;

ST PAUL        MOSUNNY   60  34  37 N9        30.10S
CRYSTAL        CLOUDY    63  33  32 N7        30.09S
BLAINE         MOSUNNY   63  32  31 N9        30.10S
EDEN PRAIRIE   PTSUNNY   62  34  35 NE6       30.09S
6HR MIN TEMP:  58; 6HR MAX TEMP:  64;

SOUTH ST PAUL  MOSUNNY   62  32  32 N6        30.09S
LAKE ELMO      FAIR      61  34  36 N6        30.10S
$$
MNZ001>005-007-008-013>017-022>024-027-028-020100-
   Northwest Minnesota

CITY           SKY/WX    TMP DP  RH WIND       PRES   REMARKS
BEMIDJI        SUNNY     59  29  31 N6        30.14F
HALLOCK        SUNNY     64  19  17 N7        30.13F
ROSEAU         SUNNY     61  30  31 E9        30.15F
WARROAD        SUNNY     57  28  33 E7        30.16F
THIEF RVR FALL SUNNY     63  25  23 N7        30.16S
CROOKSTON      SUNNY     64  28  25 NE5       30.15S
FOSSTON        SUNNY     64  32  29 CALM      30.15F
DETROIT LAKES  SUNNY     63  32  31 N7        30.14F
MOORHEAD       SUNNY     64  27  24 N12       30.14F
PARK RAPIDS    SUNNY     62  28  27 E7        30.13S
MAHNOMEN       FAIR      61  28  29 E8        30.14F
$$
MNZ006-009>011-018-025>026-020100-
   North Central Minnesota

CITY           SKY/WX    TMP DP  RH WIND       PRES   REMARKS
BAUDETTE       SUNNY     59  26  28 NW8       30.15F
FLAG ISLAND    SUNNY     46  37  71 S8        30.14F
INTL FALLS     SUNNY     59  27  29 E3        30.14F
6HR MIN TEMP:  53; 6HR MAX TEMP:  60;

WASKISH        SUNNY     59  36  41 SW6       30.14F
BIG FORK       SUNNY     61  28  29 CALM      30.13F
LONGVILLE      SUNNY     61  28  29 NW7       30.13F
GRAND RAPIDS   SUNNY     61  27  27 NW5       30.14F
CRANE LAKE     SUNNY     57  27  30 CALM      30.16S
ORR            SUNNY     59  25  27 CALM      30.11F
COOK           SUNNY     59  28  31 CALM      30.14S
WALKER         FAIR      58  31  34 E3        30.14S
$$
MNZ012-019>021-037-020100-
   Northeast Minnesota

CITY           SKY/WX    TMP DP  RH WIND       PRES   REMARKS
DULUTH         MOSUNNY   50  31  48 E12       30.16S
6HR MIN TEMP:  47; 6HR MAX TEMP:  54;

ELY            SUNNY     57  27  30 N3        30.13S
HIBBING        SUNNY     57  29  34 E3        30.12F
EVELETH        SUNNY     57  32  38 SE9       30.13F
DULUTH HARBOR  SUNNY     41  37  87 CALM      30.19S
TWO HARBORS    SUNNY     54  37  54 E7        30.15S
SILVER BAY     SUNNY     50  34  53 NE3       30.15F
GRAND MARAIS     N/A     42  34  73 CALM      30.18F
G MARAIS ARPRT SUNNY     46  28  49 SE5       30.17S
$$
MNZ029>031-032-039>041-046>048-054>057-064-020100-
   West Central Minnesota

CITY           SKY/WX    TMP DP  RH WIND       PRES   REMARKS
FERGUS FALLS   SUNNY     63  30  29 N5        30.11F
WHEATON        SUNNY     64  36  34 N12       30.16S
MORRIS         SUNNY     63  30  29 N8        30.13S
ALEXANDRIA     SUNNY     61  30  31 N8        30.14S
ELBOW LAKE     FAIR      60  32  35 NE3       30.15S
WADENA         SUNNY     61  30  31 N7        30.13F
GLENWOOD       SUNNY     61  28  29 N9G16     30.14S
APPLETON       SUNNY     63  25  23 N12       30.13S
BENSON         SUNNY     63  23  22 E5        30.13S
ORTONVILLE     SUNNY     63  28  27 NE12      30.14S
MADISON        SUNNY     61  27  27 NE13      30.13F
WILLMAR        FAIR      61  32  33 NE10      30.14S
$$
MNZ033>034-036-042>043-049>051-058-059-020100-
   Central Minnesota

CITY           SKY/WX    TMP DP  RH WIND       PRES   REMARKS
ST CLOUD       SUNNY     60  30  32 N8        30.12S
6HR MIN TEMP:  55; 6HR MAX TEMP:  62;

SAUK CENTRE    FAIR      59  32  36 E7        30.13S
PAYNESVILLE    SUNNY     60  30  32 N7        30.13S
AITKIN         SUNNY     63  25  23 E3        30.12S
PINE RIVER     SUNNY     61  34  36 N8        30.16F
BRAINERD       SUNNY     59  30  33 SE3       30.13S
STAPLES        SUNNY     61  27  27 N3        30.13S
LONG PRAIRIE   FAIR      59  30  33 N3        30.14S
LITTLE FALLS   SUNNY     59  30  33 N3        30.14S
LITCHFIELD     SUNNY     61  32  33 NE8       30.13R
BUFFALO        SUNNY     59  32  35 N5        30.12S
MAPLE LAKE     MOSUNNY   61  36  39 N8        30.13S
HUTCHINSON       N/A     60  38  43 N5        30.13S
$$
MNZ037-044-045-052-053-020100-
   East Central Minnesota

CITY           SKY/WX    TMP DP  RH WIND       PRES   REMARKS
PRINCETON        N/A     61  34  36 NE8       30.12S
MORA           SUNNY     55  30  38 NE6       30.15R
CAMBRIDGE      SUNNY     63  41  45 N7        30.10S
RUSH CITY      MOSUNNY   60  36  41 N8        30.11S
MOOSE LAKE     SUNNY     55  32  41 NE6       30.13S
HINCKLEY       FAIR      59  36  41 N8        30.13S
CLOQUET        SUNNY     52  32  46 E6        30.16S
MCGREGOR       SUNNY     59  32  36 E5        30.14S
$$
MNZ071>073-080-081-089-090-097-098-020100-
   Southwest Minnesota

CITY           SKY/WX    TMP DP  RH WIND       PRES   REMARKS
MONTEVIDEO     SUNNY     61  30  31 NE9       30.15S
GRANITE FALLS  SUNNY     62  33  33 N13       30.14S
CANBY          SUNNY     61  35  37 N9        30.15S
MARSHALL       SUNNY     59  30  33 N12       30.13S
REDWOOD FALLS  MOSUNNY   61  30  31 N8        30.12S
OLIVIA         SUNNY     59  32  36 N7        30.12S
PIPESTONE      MOSUNNY   57  30  35 NE12      30.13S
WINDOM         SUNNY     55  36  47 NE8       30.12S
WORTHINGTON    SUNNY     55  37  50 N10       30.12F
JACKSON        MOSUNNY   54  37  54 N8        30.12S
TRACY          MOSUNNY   59  35  41 N12       30.13S
SLAYTON        MOSUNNY   56  34  44 N7        30.13F
$$
MNZ065>067-074>077-082>085-091>093-020100-
   South Central Minnesota

CITY           SKY/WX    TMP DP  RH WIND       PRES   REMARKS
MANKATO        SUNNY     59  34  38 N13       30.10S
NEW ULM        SUNNY     57  34  41 N8        30.11S
ST JAMES       SUNNY     54  36  50 N9        30.12S
FAIRMONT       CLOUDY    55  39  54 N8        30.10S
GLENCOE        MOSUNNY   60  39  45 N9        30.11S
FARIBAULT      MOSUNNY   61  36  39 N8        30.09S
OWATONNA       CLOUDY    57  36  44 N7        30.08S
WASECA         CLOUDY    55  36  47 N9        30.10S
ALBERT LEA     CLOUDY    57  37  47 SE2       30.08S
$$
MNZ078>079-086>088-094>096-020100-
   Southeast Minnesota

CITY           SKY/WX    TMP DP  RH WIND       PRES   REMARKS
ROCHESTER      CLOUDY    53  42  66 S8        30.09S
6HR MIN TEMP:  53; 6HR MAX TEMP:  58;

RED WING       CLOUDY    61  34  36 N3        30.07S
STANTON        CLOUDY    61  36  38 N5        30.07S
DODGE CENTER   CLOUDY    57  36  44 NE7       30.08R
WINONA         CLOUDY    57  39  51 CALM      30.07S
AUSTIN         CLOUDY    52  43  71 SE5       30.09R
PRESTON        CLOUDY    49  42  76 SW3       30.09S
$$
ABBREVIATIONS USED IN REMARKS
   TC - TEMPERATURES IN CELSIUS
  WCI - WIND CHILL INDEX
   HX - HEAT INDEX
  VSB - VISIBILITY
$$



USA.gov is the U.S. government's official web portal to all federal, state and local government web resources and services.